Location: Tamazert
(32.6352°N, 5.2072°W)
Time: 16:48:50
(UTC+00:00)

Vanguard 3 - Pass Details

Date: 08 October 2022
Orbit: 509 x 3255 km, 33.3° (Epoch: 08 December)

Event Time Altitude Azimuth Distance (km) Brightness Sun altitude
Rises 05:21:31 0° 218° (SW) 3,125 - -13.0°
Exits shadow 05:22:26 - 215° (SW) 2,772 9.6 -12.8°
Reaches altitude 10° 05:24:45 10° 200° (SSW) 1,941 8.9 -12.4°
Maximum altitude 05:27:41 18° 155° (SSE) 1,332 8.6 -11.7°
Drops below altitude 10° 05:30:20 10° 109° (ESE) 1,716 10.1 -11.2°
Sets 05:32:56 0° 89° (E) 2,622 12.1 -10.6°
